Weather History for Fort Myers, FL

Change the Weather History Date:

Sunday, December 30, 2012

  Actual Average Record
Temperature  
Mean Temperature 54 °F 64 °F  
Max Temperature 63 °F 75 °F 88 °F (1990)
Min Temperature 44 °F 54 °F 32 °F (1909)
Degree Days  
Heating Degree Days 11 4  
Month to date heating degree days 41 69  
Since 1 July heating degree days 56 87  
Cooling Degree Days 0 3  
Month to date cooling degree days 151 118  
Year to date cooling degree days 4364 3981  
Growing Degree Days 3 (Base 50)    
Moisture  
Dew Point 42 °F    
Average Humidity 66    
Maximum Humidity 83    
Minimum Humidity 39    
Precipitation  
Precipitation 0.00 in 0.06 in 1.20 in (1914)
Month to date precipitation 2.18 1.65  
Year to date precipitation 49.61 55.87  
Sea Level Pressure  
Sea Level Pressure 30.27 in    
Wind  
Wind Speed 11 mph (NNE)    
Max Wind Speed 21 mph    
Max Gust Speed 26 mph    
Visibility 10 miles    
Events      
T = Trace of Precipitation, MM = Missing Value Source: NWS Daily Summary

Daily Weather History Graph

Daily Weather History Graph

Search for Another Location

Airport:

Trip Planner

Search our weather history database for the weather conditions in past years. The results will help you decide how hot, cold, wet, or windy it might be!

Date:

Astronomy

Dec. 30, 2012 Rise Set
Actual Time 7:15 AM EST 5:45 PM EST
Civil Twilight 6:50 AM EST 6:10 PM EST
Nautical Twilight 6:21 AM EST 6:39 PM EST
Astronomical Twilight 5:52 AM EST 7:07 PM EST
Moon 8:00 PM EST (12/30) 8:36 AM EST (12/30)
Length of Visible Light 11h 20m
Length of Day
10h 29m
Waning Gibbous, 95% of the Moon is Illuminated
Dec 30
Waning Gibbous
Jan 4
Last Quarter
Jan 11
New
Jan 18
First Quarter
Jan 26
Full

Hourly Weather History & Observations

Time (EST) Temp. Windchill Dew Point Humidity Pressure Visibility Wind Dir Wind Speed Gust Speed Precip Events Conditions
12:53 AM 57.0 °F - 48.9 °F 74% 30.17 in 10.0 mi North 10.4 mph - N/A   Clear
1:53 AM 55.9 °F - 48.9 °F 77% 30.18 in 10.0 mi NNW 8.1 mph - N/A   Clear
2:53 AM 55.0 °F - 48.0 °F 77% 30.18 in 10.0 mi North 11.5 mph - N/A   Clear
3:53 AM 52.0 °F - 46.0 °F 80% 30.20 in 10.0 mi North 10.4 mph - N/A   Clear
4:53 AM 50.0 °F - 43.0 °F 77% 30.22 in 10.0 mi North 15.0 mph - N/A   Clear
5:53 AM 46.9 °F - 39.0 °F 74% 30.24 in 10.0 mi North 11.5 mph 21.9 mph N/A   Clear
6:53 AM 45.0 °F 37.9 °F 37.9 °F 76% 30.26 in 10.0 mi North 16.1 mph 25.3 mph N/A   Clear
7:53 AM 44.1 °F 37.7 °F 36.0 °F 73% 30.29 in 10.0 mi NNE 12.7 mph 24.2 mph N/A   Clear
8:53 AM 45.0 °F 37.6 °F 35.1 °F 68% 30.31 in 10.0 mi NNE 17.3 mph 24.2 mph N/A   Clear
9:53 AM 48.9 °F - 35.1 °F 59% 30.33 in 10.0 mi NE 15.0 mph 21.9 mph N/A   Clear
10:53 AM 51.1 °F - 36.0 °F 56% 30.33 in 10.0 mi NE 16.1 mph - N/A   Clear
11:53 AM 55.0 °F - 37.0 °F 51% 30.31 in 10.0 mi ENE 13.8 mph - N/A   Clear
12:53 PM 59.0 °F - 37.0 °F 44% 30.28 in 10.0 mi NE 10.4 mph 19.6 mph N/A   Clear
1:53 PM 61.0 °F - 37.9 °F 42% 30.26 in 10.0 mi ENE 11.5 mph 19.6 mph N/A   Clear
2:53 PM 62.1 °F - 37.9 °F 41% 30.26 in 10.0 mi NE 12.7 mph - N/A   Clear
3:53 PM 62.1 °F - 39.9 °F 44% 30.27 in 10.0 mi ENE 11.5 mph - N/A   Clear
4:53 PM 60.1 °F - 41.0 °F 49% 30.28 in 10.0 mi ENE 10.4 mph - N/A   Clear
5:53 PM 57.9 °F - 43.0 °F 58% 30.29 in 10.0 mi ENE 5.8 mph - N/A   Clear
6:53 PM 55.0 °F - 44.1 °F 67% 30.31 in 10.0 mi NE 6.9 mph - N/A   Partly Cloudy
7:53 PM 54.0 °F - 46.0 °F 75% 30.31 in 10.0 mi NE 5.8 mph - N/A   Clear
8:53 PM 52.0 °F - 46.0 °F 80% 30.32 in 10.0 mi NE 5.8 mph - N/A   Clear
9:53 PM 52.0 °F - 46.0 °F 80% 30.31 in 10.0 mi NE 6.9 mph - N/A   Clear
10:53 PM 52.0 °F - 45.0 °F 77% 30.31 in 10.0 mi NE 6.9 mph - N/A   Clear
11:53 PM 50.0 °F - 45.0 °F 83% 30.31 in 10.0 mi NNE 6.9 mph - N/A   Clear